星链-11405 (STARLINK-11405)

导读

STARLINK-11405是美国SpaceX星链星座的一员,于2025年2月15日发射升空。星链系统旨在构建全球卫星互联网,为偏远地区、海洋及空中场景提供低延迟宽带服务。该卫星延续星链设计,采用低轨部署,推进星座扩容,完善全球覆盖网络,服务全球互联网接入需求。

Basic Information
目录编号:
63008
目录名称:
STARLINK-11405
国际标识:
2025-032D
轨道中心:
EARTH
卫星名称:
星链-11405
卫星全名:
星链-11405 (STARLINK-11405)
卫星状态:
在轨 (已飞行567 天)
发射日期:
2025-02-15 UTC
国别 :
美国 (US)
星等 :
--
Orbit Information
数据来源 国际轨道数据
星历时间: 2026-09-05T14:21:56+0800
8小时前
查看轨道信息
半长轴: 6734.656km
偏心率: 0.0001259
轨道倾角: 42.999°
近地点辐角 253.313°
升交点赤经 193.165°
平近点角 106.760°
近地点: 355.671km
远地点: 357.367km
周期: 91.671分钟
每日圈数: 15.708317
Detailed Information
固有亮度:
5
最大亮度:
2.5
卫星平台:
Starlink V1.0
覆盖范围:
全球
运营商:
太空探索技术公司
运营商所在国:
美国
制造商(研发单位):
太空探索技术公司
制造商所在国:
美国
使用方式:
暂无
Satellite Introduction
Starlink 计划是 SpaceX 推出的全球卫星互联网项目,通过发射低轨道卫星,为全球尤其是偏远地区提供高速、低延迟的互联网服务。自 2019 年起,Starlink 已部署数千颗卫星,旨在缩小全球数字鸿沟,推动互联网普及。该项目还为军事、航空等行业提供通信支持,带来广泛经济效益。
2D Orbit Map
3D Orbit Map
Orbit Altitude Analysis Chart
Orbit Inclination Analysis Chart
Orbit Comprehensive Analysis Chart
View Comprehensive Chart
Conjunction Data List
Event ID Objects TCA Miss Dist (km) Collision Risk Probability Collision Risk Index (CRI) Action
CDM_260907-190106-300806-423821
2026-09-07T
19:01:52+0000
0.934 km
远距离
6.92015E-6 低风险 0.52
CDM_260903-120206-300806-423821
2026-09-03T
12:02:13+0000
1.030 km
极远距离
4.958539E-6 低风险 0.49
CDM_260903-111606-300806-423821
2026-09-03T
11:16:27+0000
1.294 km
极远距离
2.330083E-6 低风险 0.42
CDM_260907-194706-300806-423821
2026-09-07T
19:47:37+0000
1.967 km
极远距离
7.452008E-7 极低风险 0.32